CW6780 Weather Reports


Display with metric or nautical units.
time (UTC)temp
F
wind
direction
speed
MPH
gust
MPH
rain 1hr
in
rain 24hr
in
rain mn
in
humidity
%
barometer
mb
20220123150147 37 52 0.0 4.0 0.00 0.00 0.00 98 1026.4
20220123145147 38 12 1.0 6.0 0.00 0.00 0.00 98 1026.3
20220123142148 38 52 0.0 3.0 0.00 0.00 0.00 98 1026.3
20220123135148 38 58 1.0 5.0 0.00 0.00 0.00 97 1026.1
20220123133148 38 43 2.0 6.0 0.00 0.00 0.00 97 1026.2
20220123131147 38 46 2.0 7.0 0.00 0.00 0.00 97 1026.2
20220123130147 38 10 2.0 7.0 0.00 0.00 0.00 97 1026.3
20220123125149 38 52 1.0 5.0 0.00 0.00 0.00 97 1026.4
20220123124148 38 60 2.0 6.0 0.00 0.00 0.00 97 1026.5
20220123123148 38 61 2.0 6.0 0.00 0.00 0.00 97 1026.5
20220123122148 38 54 1.0 7.0 0.00 0.00 0.00 97 1026.5
20220123120148 38 28 3.0 9.0 0.00 0.00 0.00 97 1026.6
20220123114149 38 16 2.0 7.0 0.00 0.00 0.00 97 1026.9
20220123113149 38 66 1.0 6.0 0.00 0.00 0.00 97 1026.9
20220123112149 38 51 4.0 10.0 0.00 0.00 0.00 97 1026.9
20220123111147 38 43 5.0 10.0 0.00 0.00 0.00 96 1026.9
20220123105147 39 41 2.0 8.0 0.00 0.00 0.00 96 1027.0
20220123104148 39 53 2.0 6.0 0.00 0.00 0.00 96 1027.0
20220123103148 39 55 3.0 10.0 0.00 0.00 0.00 96 1027.1
20220123102148 39 50 3.0 8.0 0.00 0.00 0.00 96 1027.2
20220123101147 39 39 3.0 8.0 0.00 0.00 0.00 96 1027.2
20220123100148 39 61 2.0 8.0 0.00 0.00 0.00 96 1027.2
20220123093148 39 49 4.0 9.0 0.00 0.00 0.00 96 1027.4
20220123091149 39 53 2.0 6.0 0.00 0.00 0.00 96 1027.5
20220123090147 39 41 3.0 9.0 0.00 0.00 0.00 96 1027.6
20220123083148 39 47 3.0 8.0 0.00 0.00 0.00 95 1028.0
20220123082148 39 35 3.0 8.0 0.00 0.00 0.00 95 1028.1
20220123081149 39 60 3.0 9.0 0.00 0.00 0.00 95 1028.0
20220123080148 39 51 3.0 10.0 0.00 0.00 0.00 95 1028.1
20220123073149 39 53 1.0 5.0 0.00 0.00 0.00 95 1028.2
20220123065148 39 8 1.0 4.0 0.00 0.00 0.00 94 1028.0
20220123064149 39 2 1.0 5.0 0.00 0.00 0.00 94 1028.1
20220123063148 39 11 1.0 5.0 0.00 0.00 0.00 94 1028.0
20220123062148 39 82 2.0 6.0 0.00 0.00 0.00 94 1028.0
20220123061149 40 23 2.0 5.0 0.00 0.00 0.00 94 1027.8
20220123060148 40 357 1.0 4.0 0.00 0.00 0.00 94 1028.0
20220123053148 40 330 2.0 9.0 0.00 0.00 0.00 94 1028.0
20220123052148 40 61 3.0 10.0 0.00 0.00 0.00 94 1028.0
20220123051148 41 61 3.0 7.0 0.00 0.00 0.00 94 1028.0
20220123050148 41 48 3.0 8.0 0.00 0.00 0.00 93 1028.1
20220123043148 41 42 4.0 10.0 0.00 0.00 0.00 93 1028.1
20220123042148 41 43 3.0 8.0 0.00 0.00 0.00 93 1028.2
20220123031148 41 51 3.0 8.0 0.00 0.00 0.00 89 1028.6
20220123025148 42 51 3.0 7.0 0.00 0.00 0.00 88 1028.8
20220123024148 42 56 3.0 7.0 0.00 0.00 0.00 88 1029.0
20220123020148 42 33 3.0 8.0 0.00 0.00 0.00 89 1029.1
20220123015150 42 61 3.0 8.0 0.00 0.00 0.00 89 1029.1
20220123013148 42 60 3.0 7.0 0.00 0.00 0.00 88 1029.1
20220123012148 42 58 2.0 4.0 0.00 0.00 0.00 87 1029.1
20220123010149 43 53 2.0 6.0 0.00 0.00 0.00 86 1029.3
20220123005148 43 62 4.0 8.0 0.00 0.00 0.00 85 1029.6
20220123004149 44 69 3.0 8.0 0.00 0.00 0.00 84 1029.6
20220123002149 44 39 1.0 5.0 0.00 0.00 0.00 84 1029.4
20220123001148 44 39 1.0 5.0 0.00 0.00 0.00 84 1029.6
20220123000148 44 37 1.0 5.0 0.00 0.00 0.00 84 1029.7
20220122235148 44 51 1.0 4.0 0.00 0.00 0.00 83 1029.7
20220122234149 44 51 1.0 3.0 0.00 0.00 0.00 82 1029.7
20220122233148 44 51 1.0 5.0 0.00 0.00 0.00 82 1029.8
20220122231149 45 54 2.0 5.0 0.00 0.00 0.00 80 1030.2
20220122224148 45 56 2.0 6.0 0.00 0.00 0.00 79 1030.2
20220122220148 44 64 4.0 8.0 0.00 0.00 0.00 80 1030.2
20220122215148 44 52 4.0 9.0 0.00 0.00 0.00 81 1030.4
20220122212148 44 47 4.0 10.0 0.00 0.00 0.00 81 1030.7
20220122211148 44 17 4.0 8.0 0.00 0.00 0.00 81 1030.7
20220122204149 44 55 3.0 9.0 0.00 0.00 0.00 83 1031.1
20220122202148 44 53 3.0 8.0 0.00 0.00 0.00 86 1031.2
20220122194148 43 64 4.0 11.0 0.00 0.00 0.00 89 1031.3
20220122193148 43 49 2.0 7.0 0.00 0.00 0.00 90 1031.5
20220122185149 42 30 3.0 6.0 0.00 0.00 0.00 89 1031.6
20220122184149 42 55 3.0 8.0 0.00 0.00 0.00 89 1031.6
20220122182148 42 53 3.0 10.0 0.00 0.00 0.00 89 1031.7
20220122175148 42 45 3.0 7.0 0.00 0.00 0.00 91 1031.7
20220122174148 41 47 3.0 9.0 0.00 0.00 0.00 92 1031.7
20220122173149 41 57 3.0 7.0 0.00 0.00 0.00 92 1031.7
20220122170148 40 49 2.0 5.0 0.00 0.00 0.00 92 1031.8
20220122165148 40 49 2.0 6.0 0.00 0.00 0.00 92 1031.8
20220122162148 40 49 2.0 6.0 0.00 0.00 0.00 92 1031.5
20220122160148 40 50 3.0 8.0 0.00 0.00 0.00 92 1031.2
20220122154148 40 49 2.0 7.0 0.00 0.00 0.00 92 1031.5